This demonstration page uses our WeatherBlox Daily Observations layout. Learn more.

Left ArrowRight Arrow

Hourly Observations for June 12, 2019

Temp ( °F °C ) Dew Point ( °F °C ) Humidity (%) Winds ( mph kmh ) Pressure ( in mb ) Visibility ( mi km ) Precip ( " mm )
12:56 am 00:56 Clear 56 13.3 49 9.4 77 77 WNW 5 7 30.07 1018 10 16 0.00 0.00
1:56 am 01:56 Clear 54 12.2 49 9.4 83 83 NW 8 13 30.07 1018 10 16 0.00 0.00
2:56 am 02:56 Clear 55 12.8 49 9.4 80 80 NW 10 17 30.07 1018 10 16 0.00 0.00
3:56 am 03:56 Clear 55 12.8 48 8.9 77 77 NW 10 17 30.06 1018 10 16 0.00 0.00
4:56 am 04:56 Clear 54 12.2 48 8.9 80 80 NW 12 19 30.08 1019 10 16 0.00 0.00
5:56 am 05:56 Clear 53 11.7 47 8.3 80 80 NW 7 11 30.10 1019 10 16 0.00 0.00
6:56 am 06:56 Partly Cloudy 53 11.7 48 8.9 83 83 NW 10 17 30.12 1020 10 16 0.00 0.00
7:56 am 07:56 Sunny 57 13.9 49 9.4 74 74 N 21 33 30.11 1020 10 16 0.00 0.00
8:56 am 08:56 Sunny 60 15.6 49 9.4 67 67 N 18 30 30.13 1020 10 16 0.00 0.00
9:56 am 09:56 Sunny 63 17.2 50 10 63 63 N 20 31 30.14 1021 10 16 0.00 0.00
10:56 am 10:56 Mostly Sunny 66 18.9 49 9.4 54 54 N 22 35 30.15 1021 10 16 0.00 0.00
11:56 am 11:56 Mostly Cloudy 64 17.8 49 9.4 58 58 N 18 30 30.16 1021 10 16 0.00 0.00
12:56 pm 12:56 Mostly Cloudy 67 19.4 47 8.3 49 49 N 21 33 30.16 1021 10 16 0.00 0.00
1:56 pm 13:56 Mostly Cloudy 67 19.4 46 7.8 47 47 NNE 21 33 30.15 1021 10 16 0.00 0.00
2:56 pm 14:56 Sunny 69 20.6 43 6.1 39 39 N 20 31 30.14 1021 10 16 0.00 0.00
3:56 pm 15:56 Sunny 70 21.1 41 5 35 35 N 17 28 30.13 1020 10 16 0.00 0.00
4:56 pm 16:56 Sunny 70 21.1 40 4.4 34 34 NNE 15 24 30.13 1020 10 16 0.00 0.00
5:56 pm 17:56 Sunny 68 20 39 3.9 35 35 N 12 19 30.14 1021 10 16 0.00 0.00
6:56 pm 18:56 Sunny 70 21.1 38 3.3 31 31 NNW 10 17 30.13 1020 10 16 0.00 0.00
7:56 pm 19:56 Sunny 68 20 38 3.3 33 33 N 9 15 30.12 1020 10 16 0.00 0.00
8:56 pm 20:56 Sunny 65 18.3 39 3.9 39 39 N 5 7 30.11 1020 10 16 0.00 0.00
9:56 pm 21:56 Clear 63 17.2 40 4.4 43 43 Calm 30.12 1020 10 16 0.00 0.00
10:56 pm 22:56 Clear 60 15.6 42 5.6 52 52 Calm 30.12 1020 10 16 0.00 0.00
11:56 pm 23:56 Clear 56 13.3 45 7.2 67 67 SSW 5 7 30.12 1020 10 16 0.00 0.00

Powered by AerisWeather